Location: Altavilla Irpina
(41.0000°N, 14.7833°E)
Time: 10:21:08
(UTC+00:00)

Cosmos 2112 Rocket - Pass Details

Date: 19 May 2025
Orbit: 753 x 783 km, 74.0° (Epoch: 23 June)

Event Time Altitude Azimuth Distance (km) Brightness Sun altitude
Exits shadow 23:41:17 55° 303° (WNW) 917 4.4 -28.2°
Drops below altitude 10° 23:46:13 10° 11° (N) 2,306 7.4 -28.0°
Sets 23:48:38 0° 16° (NNE) 3,232 8.5 -27.9°
